This demonstration page uses our WeatherBlox Daily Observations layout. Learn more.

Hourly Observations for December 12, 2016

Temp ( °F °C ) Dew Point ( °F °C ) Humidity (%) Winds ( mph kmh ) Pressure ( in mb ) Visibility ( mi km ) Precip ( " mm )
12:15 am 00:15 Clear 16 -8.8 10 -12 78 78 S 8 13 30.21 1023 10 16.0934 0 0
12:35 am 00:35 Clear 17 -8.5 11 -11.8 77 77 S 7 11 30.24 1024 10 16.0934 0 0
12:55 am 00:55 Clear 16 -9 10 -12.1 78 78 S 5 7 30.27 1025 10 16.0934 0 0
1:15 am 01:15 Clear 15 -9.7 9 -12.7 79 79 SSE 6 9 30.24 1024 10 16.0934 0 0
1:35 am 01:35 Partly Cloudy 15 -9.5 10 -12.4 80 80 S 3 6 30.24 1024 10 16.0934 0 0
1:55 am 01:55 Partly Cloudy 15 -9.5 10 -12.1 82 82 S 7 11 30.24 1024 10 16.0934 0 0
2:15 am 02:15 Clear 17 -8.6 11 -11.5 80 80 S 7 11 30.21 1023 10 16.0934 0 0
2:35 am 02:35 Clear 17 -8.5 11 -11.6 79 79 S 9 15 30.21 1023 10 16.0934 0 0
2:55 am 02:55 Mostly Cloudy 18 -7.7 13 -10.8 79 79 S 13 20 30.21 1023 10 16.0934 0 0
3:15 am 03:15 Cloudy 20 -6.6 14 -10.1 76 76 S 13 20 30.18 1022 10 16.0934 0 0
3:35 am 03:35 Cloudy 19 -7 13 -10.3 78 78 S 14 22 30.18 1022 10 16.0934 0 0
3:55 am 03:55 Cloudy 20 -6.7 14 -10 78 78 S 13 20 30.18 1022 10 16.0934 0 0
4:15 am 04:15 Cloudy 21 -6.3 15 -9.7 77 77 SSW 8 13 30.15 1021 10 16.0934 0 0
4:35 am 04:35 Cloudy 21 -6 15 -9.6 76 76 S 3 6 30.15 1021 10 16.0934 0 0
4:55 am 04:55 Cloudy 22 -5.5 15 -9.3 75 75 S 8 13 30.15 1021 10 16.0934 0 0
5:15 am 05:15 Cloudy 23 -5 16 -8.8 75 75 SSW 3 6 30.15 1021 10 16.0934 0 0
5:35 am 05:35 Cloudy 23 -4.8 17 -8.6 75 75 S 13 20 30.12 1020 10 16.0934 0 0
5:55 am 05:55 Cloudy 24 -4.6 17 -8.5 74 74 SSW 10 17 30.12 1020 10 16.0934 0 0
6:15 am 06:15 Cloudy 24 -4.2 17 -8.3 73 73 SSW 10 17 30.12 1020 10 16.0934 0 0
6:35 am 06:35 Cloudy 25 -3.9 17 -8.2 72 72 SSW 10 17 30.12 1020 10 16.0934 0 0
6:55 am 06:55 Cloudy 25 -3.8 18 -8 73 73 SW 12 19 30.12 1020 10 16.0934 0 0
7:15 am 07:15 Cloudy 26 -3.6 18 -7.8 73 73 SW 8 13 30.09 1019 10 16.0934 0 0
7:35 am 07:35 Cloudy 26 -3.5 18 -7.7 73 73 SW 6 9 30.09 1019 10 16.0934 0 0
7:55 am 07:55 Cloudy 26 -3.5 19 -7.5 74 74 SW 8 13 30.09 1019 10 16.0934 0 0
8:15 am 08:15 Cloudy 26 -3.1 19 -7.3 73 73 SW 5 7 30.09 1019 10 16.0934 0 0
8:35 am 08:35 Cloudy 26 -3.1 19 -7.2 74 74 SSW 7 11 30.09 1019 10 16.0934 0 0
8:55 am 08:55 Cloudy 27 -2.7 19 -7 73 73 SSW 8 13 30.09 1019 10 16.0934 0 0
9:15 am 09:15 Cloudy 28 -2.5 19 -7 72 72 SW 10 17 30.09 1019 10 16.0934 0 0
9:35 am 09:35 Cloudy 28 -2.1 20 -6.6 72 72 SW 9 15 30.09 1019 10 16.0934 0 0
10:15 am 10:15 Cloudy 31 -0.5 19 -7 62 62 SW 12 19 30.06 1018 10 16.0934 0 0
10:35 am 10:35 Cloudy 32 -0.2 19 -7.4 59 59 SW 12 19 30.06 1018 10 16.0934 0 0
10:55 am 10:55 Mostly Cloudy 32 -0.1 19 -7.2 59 59 WSW 10 17 30.09 1019 10 16.0934 0 0
11:15 am 11:15 Partly Cloudy 32 0.2 20 -6.8 60 60 SW 10 17 30.06 1018 10 16.0934 0 0
11:35 am 11:35 Partly Cloudy 34 1.3 19 -7.1 54 54 SW 12 19 30.06 1018 10 16.0934 0 0
11:55 am 11:55 Partly Cloudy 37 2.9 19 -7.3 47 47 SW 17 28 30.03 1017 10 16.0934 0 0
12:15 pm 12:15 Sunny 38 3.1 18 -8 44 44 SW 12 19 30 1016 10 16.0934 0 0
12:35 pm 12:35 Sunny 38 3.3 18 -7.6 45 45 SW 14 22 30 1016 10 16.0934 0 0
12:55 pm 12:55 Sunny 41 4.9 15 -9.2 36 36 SW 18 30 29.97 1015 10 16.0934 0 0
1:15 pm 13:15 Sunny 43 6.2 17 -8.3 35 35 SSW 20 31 29.91 1013 10 16.0934 0 0
1:35 pm 13:35 Sunny 44 6.6 18 -8 35 35 SSW 17 28 29.91 1013 10 16.0934 0 0
1:55 pm 13:55 Sunny 45 7.4 19 -7 36 36 SW 18 30 29.91 1013 10 16.0934 0 0
2:15 pm 14:15 Sunny 46 7.9 19 -7.5 33 33 SW 18 30 29.91 1013 10 16.0934 0 0
2:35 pm 14:35 Sunny 46 7.7 19 -7.5 33 33 SW 17 28 29.91 1013 10 16.0934 0 0
2:55 pm 14:55 Sunny 45 7.4 17 -8.2 32 32 SW 14 22 29.91 1013 10 16.0934 0 0
3:15 pm 15:15 Sunny 45 7.2 17 -8.1 33 33 SW 15 24 29.91 1013 10 16.0934 0 0
3:35 pm 15:35 Sunny 45 7 17 -8.2 33 33 SW 14 22 29.91 1013 10 16.0934 0 0
3:55 pm 15:55 Sunny 44 6.4 16 -8.7 33 33 SSW 12 19 29.91 1013 10 16.0934 0 0
4:15 pm 16:15 Sunny 43 6.1 16 -9 33 33 SSW 10 17 29.91 1013 10 16.0934 0 0
4:35 pm 16:35 Sunny 41 5.1 16 -9 36 36 SSW 6 9 29.91 1013 10 16.0934 0 0
4:55 pm 16:55 Sunny 40 4.2 17 -8.6 39 39 SSW 5 7 29.94 1014 10 16.0934 0 0
5:15 pm 17:15 Clear 37 2.6 16 -8.7 43 43 S 5 7 29.97 1015 10 16.0934 0 0
5:35 pm 17:35 Clear 34 1.2 17 -8.6 48 48 S 6 9 30 1016 10 16.0934 0 0
5:55 pm 17:55 Partly Cloudy 34 1.1 17 -8.2 50 50 S 6 9 30 1016 10 16.0934 0 0
6:15 pm 18:15 Partly Cloudy 32 0 17 -8.1 55 55 NNE 17 28 30.06 1018 10 16.0934 0 0
6:35 pm 18:35 Partly Cloudy 30 -1.2 15 -9.4 54 54 NNE 18 30 30.09 1019 10 16.0934 0 0
6:55 pm 18:55 Partly Cloudy 29 -1.7 15 -9.5 56 56 NNE 15 24 30.09 1019 10 16.0934 0 0
7:15 pm 19:15 Partly Cloudy 28 -2.4 14 -9.8 57 57 NNE 20 31 30.12 1020 10 16.0934 0 0
7:35 pm 19:35 Partly Cloudy 24 -4.3 13 -10.4 63 63 NNE 21 33 30.18 1022 10 16.0934 0 0
7:55 pm 19:55 Partly Cloudy 21 -6 11 -11.4 66 66 NNE 17 28 30.18 1022 10 16.0934 0 0
8:15 pm 20:15 Mostly Cloudy 19 -7.5 10 -12.4 68 68 NNE 20 31 30.24 1024 10 16.0934 0 0
8:35 pm 20:35 Cloudy 17 -8.4 9 -13 70 70 NNE 18 30 30.27 1025 10 16.0934 0 0
8:55 pm 20:55 Cloudy 16 -9 8 -13.3 71 71 NNE 15 24 30.3 1026 10 16.0934 0 0
9:15 pm 21:15 Cloudy 15 -9.2 8 -13.6 71 71 NNE 15 24 30.27 1025 10 16.0934 0 0
9:35 pm 21:35 Mostly Cloudy 14 -9.8 6 -14.4 69 69 NNE 18 30 30.3 1026 10 16.0934 0 0
9:55 pm 21:55 Partly Cloudy 14 -10.1 5 -14.8 69 69 NNE 17 28 30.3 1026 10 16.0934 0 0
10:15 pm 22:15 Mostly Cloudy 13 -10.3 5 -14.9 69 69 NNE 14 22 30.33 1027 10 16.0934 0 0
10:35 pm 22:35 Partly Cloudy 13 -10.8 5 -15.1 71 71 NNE 16 26 30.3 1026 10 16.0934 0 0
10:55 pm 22:55 Partly Cloudy 12 -11.1 5 -15.1 73 73 NNE 15 24 30.36 1028 10 16.0934 0 0
11:15 pm 23:15 Partly Cloudy 13 -10.7 5 -14.8 72 72 NNE 16 26 30.33 1027 10 16.0934 0 0
11:35 pm 23:35 Partly Cloudy 13 -10.7 5 -15 71 71 N 16 26 30.33 1027 10 16.0934 0 0
11:55 pm 23:55 Partly Cloudy 12 -11 5 -15.1 72 72 NNE 12 19 30.33 1027 10 16.0934 0 0

Powered by AerisWeather